Location: *
(49.6619°S, 177.4603°W)
Time: 04:53:37
(UTC+00:00)

H-2A R/B - Pass Details

Date: 31 January 2023
Orbit: 566 x 589 km, 98.1° (Epoch: 01 April)

Event Time Altitude Azimuth Distance (km) Brightness Sun altitude
Exits shadow 11:08:12 55° 314° (NW) 722 3.6 -21.9°
Maximum altitude 11:08:42 59° 282° (WNW) 689 3.7 -21.9°
Drops below altitude 10° 11:12:51 10° 201° (SSW) 1,934 7.2 -22.0°
Sets 11:15:03 0° 197° (SSW) 2,837 8.5 -22.1°
